Location: Moulis
(42.9609°N, 1.0909°E)
Time: 16:54:10
(UTC+00:00)

USA 238 DEB - Visible Passes

Search period start: 14 March 2026 00:00
Search period end: 24 March 2026 00:00
Orbit: 883 x 1328 km, 63.4° (Epoch: 10 January)

Date Brightness Start Highest point End Pass type
(mag) Time Alt. Az. Time Alt. Az. Time Alt. Az.
14 Mar 6.3 00:39:31 10° NNW 00:42:55 14° N 00:46:26 10° NE visible
14 Mar 5.7 02:30:49 10° NNW 02:36:42 25° NNE 02:42:59 10° E visible
14 Mar 4.1 04:21:17 10° NW 04:28:47 78° NE 04:36:56 10° SE visible
14 Mar 3.3 20:05:25 10° SSW 20:11:26 87° SE 20:18:06 10° NE visible
14 Mar 5.4 21:58:09 10° W 22:03:16 25° NNW 22:08:49 10° NNE visible
14 Mar 6.2 23:53:41 10° NNW 23:56:58 14° N 00:00:24 10° NNE visible
15 Mar 6.0 01:45:55 10° NNW 01:51:01 20° NNE 01:56:27 10° ENE visible
15 Mar 4.6 03:36:21 10° NNW 03:43:38 55° NE 03:51:31 10° SE visible
15 Mar 4.5 05:27:33 10° NW 05:34:31 40° WSW 05:41:56 10° S visible
15 Mar 3.5 19:20:46 10° SSW 19:26:34 55° ESE 19:32:56 10° NE visible
15 Mar 5.0 21:12:12 10° WSW 21:17:47 34° NW 21:23:54 10° NNE visible
15 Mar 6.1 23:07:26 10° NW 23:11:03 15° NNW 23:14:51 10° NNE visible
16 Mar 6.2 01:00:55 10° NNW 01:05:14 16° NNE 01:09:46 10° NE visible
16 Mar 5.1 02:51:29 10° NNW 02:58:20 40° NE 03:05:46 10° ESE visible
16 Mar 4.0 04:42:16 10° NW 04:49:40 60° WSW 04:57:38 10° SSE visible
16 Mar 4.1 18:36:36 10° S 18:41:53 33° ESE 18:47:33 10° NE visible
16 Mar 4.3 20:26:35 10° WSW 20:32:29 49° NW 20:38:59 10° NNE visible
16 Mar 6.0 22:21:03 10° WNW 22:25:13 17° NNW 22:29:40 10° NNE visible
17 Mar 6.2 00:15:42 10° NNW 00:19:21 14° N 00:23:09 10° NE visible
17 Mar 5.5 02:06:38 10° NNW 02:12:54 30° NE 02:19:39 10° E visible
17 Mar 3.9 03:57:11 10° NW 04:04:43 86° SW 04:12:53 10° SSE visible
17 Mar 3.7 19:41:18 10° SW 19:47:20 74° NW 19:54:01 10° NE visible
17 Mar 5.7 21:34:44 10° WNW 21:39:30 22° NNW 21:44:40 10° NNE visible
17 Mar 6.3 23:30:07 10° NNW 23:33:24 14° N 23:36:50 10° NNE visible
18 Mar 5.8 01:21:46 10° NNW 01:27:20 23° NNE 01:33:15 10° E visible
18 Mar 4.2 03:12:12 10° NNW 03:19:38 68° NE 03:27:42 10° SE visible
18 Mar 4.7 05:03:45 10° NW 05:10:16 31° WSW 05:17:09 10° S visible
18 Mar 3.4 18:56:24 10° SSW 19:02:22 72° ESE 19:08:57 10° NE visible
18 Mar 5.3 20:48:37 10° W 20:53:57 28° NW 20:59:44 10° NNE visible
18 Mar 6.2 22:44:06 10° NW 22:47:28 14° N 22:51:01 10° NNE visible
19 Mar 6.0 00:36:50 10° NNW 00:41:36 18° NNE 00:46:39 10° ENE visible
19 Mar 4.7 02:27:18 10° NNW 02:34:25 48° NE 02:42:09 10° ESE visible
19 Mar 4.2 04:18:18 10° NW 04:25:30 47° WSW 04:33:11 10° S visible
19 Mar 4.8 20:02:49 10° WSW 20:08:32 39° NW 20:14:50 10° NNE visible
19 Mar 6.1 21:57:46 10° NW 22:01:36 16° NNW 22:05:39 10° NNE visible
19 Mar 6.2 23:51:46 10° NNW 23:55:46 15° NNE 23:59:58 10° NE visible
20 Mar 5.2 01:42:27 10° NNW 01:49:04 35° NE 01:56:14 10° ESE visible
20 Mar 3.9 03:33:06 10° NW 03:40:36 70° WSW 03:48:41 10° SSE visible
20 Mar 5.4 05:26:38 10° WNW 05:30:33 15° WSW 05:34:34 10° SW visible
20 Mar 4.1 19:17:19 10° SW 19:23:17 58° NW 19:29:54 10° NNE visible
20 Mar 5.9 21:11:22 10° WNW 21:15:48 19° NNW 21:20:33 10° NNE visible
20 Mar 6.2 23:06:25 10° NNW 23:09:51 14° N 23:13:27 10° NE visible
21 Mar 5.6 00:57:35 10° NNW 01:03:35 27° NNE 01:09:59 10° E visible
21 Mar 3.9 02:48:04 10° NW 02:55:36 82° NE 03:03:45 10° SE visible
21 Mar 4.9 04:40:07 10° WNW 04:45:59 24° WSW 04:52:07 10° SSW visible
21 Mar 3.6 18:32:12 10° SW 18:38:14 88° NW 18:44:54 10° NE visible
21 Mar 5.6 20:25:08 10° W 20:30:09 24° NNW 20:35:35 10° NNE visible
21 Mar 6.3 22:20:38 10° NNW 22:23:54 14° N 22:27:19 10° NNE visible
22 Mar 5.9 00:12:43 10° NNW 00:17:56 21° NNE 00:23:30 10° ENE visible
22 Mar 4.4 02:03:08 10° NNW 02:10:28 59° NE 02:18:24 10° SE visible
22 Mar 4.4 03:54:25 10° NW 04:01:16 37° WSW 04:08:34 10° S visible
22 Mar 5.2 19:39:08 10° W 19:44:39 32° NW 19:50:41 10° NNE visible
22 Mar 6.2 21:34:27 10° NW 21:37:59 15° N 21:41:42 10° NNE visible
22 Mar 6.1 23:27:44 10° NNW 23:32:09 17° NNE 23:36:50 10° ENE visible
23 Mar 4.9 01:18:15 10° NNW 01:32:34 11° ESE 01:32:42 10° ESE visible
23 Mar 4.9 03:09:05 10° NW 03:20:21 31° S 03:24:21 10° SSE visible
23 Mar5.705:08:06WSW05:08:06WSW04:59:00WNWvisible
23 Mar 4.6 18:53:27 10° WSW 18:59:18 46° NW 19:05:46 10° NNE visible
23 Mar 6.1 20:48:04 10° WNW 20:52:08 17° NNW 20:56:29 10° NNE visible
23 Mar 6.2 22:42:33 10° NNW 22:46:17 15° N 22:50:11 10° NE visible
